Location: Fontevrault
(47.1823°N, 0.0493°E)
Time: 17:04:15
(UTC+00:00)

Cosmos 1725 Rocket - Pass Details

Date: 27 October 2021
Orbit: 961 x 991 km, 82.9° (Epoch: 27 November)

Event Time Altitude Azimuth Distance (km) Brightness Sun altitude
Rises 18:48:25 0° 160° (SSE) 3,660 6.8 -20.5°
Enters shadow 18:49:46 - 157° (SSE) 3,173 6.4 -20.7°
Exits shadow 18:59:47 23° 39° (NE) 1,934 5.2 -22.4°
Drops below altitude 10° 19:02:18 10° 23° (NNE) 2,714 6.1 -22.9°
Sets 19:04:58 0° 16° (NNE) 3,662 6.9 -23.3°
